Location: Pedimozza
(42.0500°N, 9.3500°E)
Time: 19:50:48
(UTC+00:00)

Cosmos 1066 Rocket - Pass Details

Date: 19 August 2019
Orbit: 798 x 895 km, 81.2° (Epoch: 22 September)

Event Time Altitude Azimuth Distance (km) Brightness Sun altitude
Rises 21:06:33 0° 350° (N) 3,357 8.3 -26.6°
Reaches altitude 10° 21:08:58 10° 351° (N) 2,410 7.3 -26.9°
Enters shadow 21:14:14 82° 35° (NE) 817 4.0 -27.5°
